GW1897 Weather Reports


time (UTC)temp
C
wind
direction
speed
KPH
gust
KPH
rain 1hr
cm
rain 24hr
cm
rain mn
cm
humidity
%
barometer
mb
20260510201952 23 277 1.6 11.3 0.00 0.41 0.00 54 1012.3
20260510201445 23 306 0.0 6.4 0.00 0.41 0.00 56 1012.2
20260510200941 23 259 0.0 6.4 0.00 0.41 0.00 55 1012.3
20260510200434 23 310 3.2 17.7 0.00 0.41 0.00 54 1012.3
20260510195928 23 238 4.8 17.7 0.00 0.41 0.00 53 1012.2
20260510195421 23 259 3.2 14.5 0.00 0.41 0.00 54 1012.3
20260510194915 23 225 4.8 14.5 0.00 0.41 0.00 53 1012.4
20260510194640 23 219 3.2 9.7 0.00 0.41 0.00 54 1012.4
20260510193903 24 231 1.6 11.3 0.00 0.41 0.00 53 1012.5
20260510193358 24 240 3.2 11.3 0.00 0.41 0.00 54 1012.5
20260510193123 24 224 1.6 14.5 0.00 0.41 0.00 54 1012.3
20260510192345 24 269 1.6 14.5 0.00 0.41 0.00 52 1012.5
20260510191839 24 304 3.2 12.9 0.00 0.41 0.00 52 1012.4
20260510191334 24 177 3.2 12.9 0.00 0.41 0.00 52 1012.4
20260510190829 24 229 3.2 12.9 0.00 0.41 0.00 53 1012.5
20260510190322 23 206 3.2 12.9 0.00 0.41 0.00 56 1012.5
20260510185817 23 242 3.2 11.3 0.00 0.41 0.00 55 1012.6
20260510185310 23 251 3.2 11.3 0.00 0.41 0.00 55 1012.6
20260510185035 23 265 1.6 11.3 0.00 0.41 0.00 56 1012.6
20260510184259 23 323 3.2 11.3 0.00 0.41 0.00 58 1012.6
20260510183752 23 263 4.8 16.1 0.00 0.41 0.00 56 1012.6
20260510183247 24 250 8.0 20.9 0.00 0.41 0.00 52 1012.6
20260510182739 24 206 9.7 27.4 0.00 0.41 0.00 51 1012.5
20260510182233 24 271 9.7 27.4 0.00 0.41 0.00 50 1012.5
20260510181728 24 214 6.4 25.7 0.00 0.41 0.00 50 1012.4
20260510181221 24 244 8.0 25.7 0.00 0.41 0.00 50 1012.6
20260510180715 24 272 8.0 20.9 0.00 0.41 0.00 51 1012.4
20260510180209 24 215 6.4 20.9 0.00 0.41 0.00 50 1012.4
20260510175704 24 252 4.8 19.3 0.00 0.41 0.00 52 1012.4
20260510175157 24 246 4.8 19.3 0.00 0.41 0.00 52 1012.2
20260510174651 24 219 4.8 17.7 0.00 0.41 0.00 53 1012.5
20260510174146 24 234 3.2 12.9 0.00 0.41 0.00 56 1012.5
20260510173639 25 211 1.6 12.9 0.00 0.41 0.00 52 1012.5
20260510173136 25 261 1.6 12.9 0.00 0.41 0.00 55 1012.4
20260510172907 24 177 1.6 12.9 0.00 0.41 0.00 56 1012.5
20260510172135 24 188 3.2 11.3 0.00 0.41 0.00 57 1012.4
20260510171636 24 147 3.2 11.3 0.00 0.41 0.00 59 1012.6
20260510171135 23 240 1.6 9.7 0.00 0.41 0.00 60 1012.5
20260510170637 23 186 1.6 8.0 0.00 0.41 0.00 63 1012.5
20260510170407 23 190 1.6 8.0 0.00 0.41 0.00 63 1012.5
20260510165635 23 193 1.6 11.3 0.00 0.41 0.00 63 1012.4
20260510165136 23 175 1.6 14.5 0.00 0.41 0.00 65 1012.6
20260510164632 22 172 3.2 14.5 0.00 0.41 0.00 63 1012.6
20260510164133 22 260 3.2 14.5 0.00 0.41 0.00 66 1012.6
20260510163630 22 198 4.8 14.5 0.00 0.41 0.00 66 1012.7
20260510163130 22 227 1.6 12.9 0.00 0.41 0.00 65 1012.6
20260510162631 22 188 0.0 4.8 0.00 0.41 0.00 68 1012.5
20260510162129 22 163 0.0 4.8 0.00 0.41 0.00 74 1012.6
20260510161630 21 134 0.0 4.8 0.00 0.41 0.00 72 1012.6
20260510161125 21 117 0.0 3.2 0.00 0.41 0.00 75 1012.6
20260510160858 21 240 0.0 3.2 0.00 0.41 0.00 76 1012.6
20260510160126 20 165 0.0 3.2 0.00 0.41 0.00 78 1012.6
20260510155625 20 76 0.0 6.4 0.00 0.41 0.00 76 1012.8
20260510155355 20 190 0.0 6.4 0.00 0.41 0.00 81 1012.9
20260510154856 19 0 0.0 3.2 0.00 0.41 0.00 81 1013.0
20260510154125 18 330 0.0 0.0 0.00 0.41 0.00 85 1013.0
20260510153625 18 316 0.0 0.0 0.00 0.41 0.00 87 1013.0
20260510153125 17 194 0.0 0.0 0.00 0.41 0.00 91 1013.0
20260510152624 17 273 0.0 0.0 0.00 0.41 0.00 92 1013.0
20260510152125 16 279 0.0 0.0 0.00 0.41 0.00 94 1013.0
20260510151624 15 346 0.0 0.0 0.00 0.41 0.00 95 1013.2
20260510151126 15 184 0.0 0.0 0.00 0.41 0.00 95 1013.2
20260510150855 15 40 0.0 4.8 0.00 0.41 0.00 96 1013.2
20260510150741 14 220 0.0 4.8 0.00 0.41 0.00 96 1013.3
20260510145624 14 202 0.0 4.8 0.00 0.41 0.00 97 1013.2
20260510145124 13 325 0.0 3.2 0.00 0.41 0.00 96 1013.2
20260510144625 13 7 0.0 3.2 0.00 0.41 0.00 96 1013.3
20260510144118 13 263 0.0 6.4 0.00 0.41 0.00 96 1013.2
20260510143612 13 235 0.0 6.4 0.00 0.41 0.00 96 1013.2
20260510143107 13 194 0.0 0.0 0.00 0.41 0.00 97 1013.2
20260510142607 12 121 0.0 0.0 0.00 0.41 0.00 97 1013.3
20260510142105 12 182 0.0 4.8 0.00 0.41 0.00 97 1013.4
20260510141610 12 233 1.6 4.8 0.00 0.41 0.00 97 1013.1
20260510141605 12 215 1.6 4.8 0.00 0.41 0.00 97 1013.1
20260510140602 12 140 1.6 4.8 0.00 0.41 0.00 97 1013.1
20260510140101 12 207 1.6 4.8 0.00 0.41 0.00 97 1013.1
20260510135558 12 238 0.0 4.8 0.00 0.41 0.00 97 1013.2
20260510135057 11 210 0.0 4.8 0.00 0.41 0.00 97 1013.1
20260510134556 11 244 0.0 1.6 0.00 0.41 0.00 97 1013.0
20260510134329 11 244 0.0 1.6 0.00 0.41 0.00 97 1012.9
20260510133826 11 290 0.0 4.8 0.00 0.41 0.00 97 1012.9
20260510133053 11 191 0.0 4.8 0.00 0.41 0.00 97 1012.9
20260510132552 11 206 0.0 4.8 0.00 0.41 0.00 97 1013.0
20260510132323 11 209 1.6 4.8 0.00 0.41 0.00 97 1013.1
20260510131552 11 239 1.6 6.4 0.00 0.41 0.00 97 1013.1
20260510131053 11 223 1.6 6.4 0.00 0.41 0.00 97 1013.2
20260510130552 11 204 0.0 0.0 0.00 0.41 0.00 97 1013.1
20260510130051 11 204 0.0 0.0 0.00 0.41 0.00 97 1013.0
20260510125552 10 231 0.0 0.0 0.00 0.41 0.00 97 1013.0
20260510125044 10 348 0.0 0.0 0.00 0.41 0.00 97 1012.9
20260510124538 10 349 0.0 0.0 0.00 0.41 0.00 97 1012.7
20260510124033 10 358 0.0 0.0 0.00 0.41 0.00 97 1012.7
20260510123527 10 359 0.0 0.0 0.00 0.41 0.00 97 1012.7
20260510123252 10 359 0.0 0.0 0.00 0.41 0.00 97 1012.7
20260510122515 10 359 0.0 0.0 0.00 0.41 0.00 97 1012.6
20260510122010 10 358 0.0 0.0 0.00 0.41 0.00 97 1012.5
20260510121503 10 101 0.0 0.0 0.00 0.41 0.00 97 1012.4
20260510120957 10 53 0.0 0.0 0.00 0.41 0.00 97 1012.7
20260510120451 10 53 0.0 0.0 0.00 0.41 0.00 97 1012.5
20260510115945 10 53 0.0 0.0 0.00 0.41 0.00 97 1012.4
20260510115445 10 50 0.0 0.0 0.00 0.41 0.00 97 1012.5
20260510114942 10 50 0.0 0.0 0.00 0.41 0.00 97 1012.4
20260510114441 10 26 0.0 0.0 0.00 0.41 0.00 97 1012.2
20260510113938 10 26 0.0 0.0 0.00 0.41 0.00 97 1012.2
20260510113436 10 26 0.0 0.0 0.00 0.41 0.00 97 1012.2
20260510112938 10 26 0.0 0.0 0.00 0.41 0.00 97 1012.3
20260510112435 9 26 0.0 0.0 0.00 0.41 0.00 97 1012.3
20260510111936 9 26 0.0 0.0 0.00 0.41 0.00 97 1012.1
20260510111434 9 26 0.0 0.0 0.00 0.41 0.00 96 1012.2
20260510110934 9 26 0.0 0.0 0.00 0.41 0.00 96 1012.2
20260510110434 9 26 0.0 0.0 0.00 0.41 0.00 96 1012.0
20260510110205 9 26 0.0 0.0 0.00 0.41 0.00 96 1012.0
20260510105432 9 26 0.0 0.0 0.00 0.41 0.00 96 1011.9
20260510105202 9 26 0.0 0.0 0.00 0.41 0.00 96 1011.8
20260510104430 9 26 0.0 0.0 0.00 0.41 0.00 96 1011.7
20260510103929 9 26 0.0 0.0 0.00 0.41 0.00 96 1011.6
20260510103659 9 26 0.0 0.0 0.00 0.41 0.00 96 1011.7
20260510102926 8 26 0.0 0.0 0.00 0.41 0.00 96 1011.7
20260510102658 8 26 0.0 0.0 0.00 0.41 0.00 96 1011.7
20260510102158 8 26 0.0 0.0 0.00 0.41 0.00 96 1011.5
20260510101419 8 26 0.0 0.0 0.00 0.41 0.00 96 1011.6
20260510100913 8 26 0.0 0.0 0.00 0.41 0.00 96 1011.4
20260510100406 8 26 0.0 0.0 0.00 0.41 0.00 96 1011.4
20260510095901 8 26 0.0 0.0 0.00 0.41 0.00 96 1011.6
20260510095354 8 26 0.0 0.0 0.00 0.41 0.00 96 1011.5
20260510094849 8 26 0.0 0.0 0.00 0.41 0.00 96 1011.4
20260510094349 8 26 0.0 0.0 0.00 0.41 0.00 96 1011.5
20260510093849 8 26 0.0 0.0 0.00 0.41 0.00 96 1011.5
20260510093352 8 26 0.0 0.0 0.00 0.41 0.00 96 1011.5
20260510093348 8 26 0.0 0.0 0.00 0.41 0.00 96 1011.5
20260510092350 8 26 0.0 0.0 0.00 0.41 0.00 96 1011.5
20260510091845 7 26 0.0 0.0 0.00 0.41 0.00 95 1011.4
20260510091347 7 26 0.0 0.0 0.00 0.41 0.00 95 1011.6
20260510090846 7 26 0.0 0.0 0.00 0.41 0.00 95 1011.4
20260510090343 7 26 0.0 0.0 0.00 0.41 0.00 95 1011.3
20260510085844 7 26 0.0 0.0 0.00 0.41 0.00 95 1011.4
20260510085343 7 26 0.0 0.0 0.00 0.41 0.00 95 1011.3
20260510084846 7 337 0.0 0.0 0.00 0.41 0.00 95 1011.5
20260510084614 7 9 0.0 0.0 0.00 0.41 0.00 95 1011.4
20260510083840 7 9 0.0 0.0 0.00 0.41 0.00 95 1011.2
20260510083339 7 9 0.0 0.0 0.00 0.41 0.00 95 1011.3
20260510082836 7 9 0.0 0.0 0.00 0.41 0.00 95 1010.8
20260510082338 7 9 0.0 0.0 0.00 0.41 0.00 95 1011.0
20260510081833 7 9 0.0 0.0 0.00 0.41 0.00 95 1011.0
20260510081332 7 9 0.0 0.0 0.00 0.41 0.00 95 1010.9
20260510080833 7 9 0.0 0.0 0.00 0.41 0.00 95 1010.8
20260510080604 7 9 0.0 0.0 0.00 0.41 0.00 95 1010.8
20260510075834 7 9 0.0 0.0 0.00 0.41 0.00 95 1010.8
20260510075331 7 9 0.0 0.0 0.00 0.41 0.00 95 1010.9
20260510074832 7 9 0.0 0.0 0.00 0.41 0.00 94 1010.8
20260510074332 7 9 0.0 0.0 0.00 0.41 0.00 94 1010.8
20260510073832 7 9 0.0 0.0 0.00 0.41 0.00 94 1010.7
20260510073331 7 9 0.0 0.0 0.00 0.41 0.00 94 1010.7
20260510072833 7 9 0.0 0.0 0.00 0.41 0.00 94 1010.7
20260510072331 7 9 0.0 0.0 0.00 0.41 0.00 94 1010.6
20260510072103 7 9 0.0 0.0 0.00 0.41 0.00 94 1010.7
20260510071332 7 9 0.0 0.0 0.00 0.41 0.00 94 1010.6
20260510070834 7 9 0.0 0.0 0.00 0.41 0.00 94 1010.5
20260510070333 7 9 0.0 0.0 0.00 0.41 0.00 94 1010.5
20260510065834 7 9 0.0 0.0 0.00 0.41 0.00 94 1010.5
20260510065331 7 9 0.0 0.0 0.00 0.41 0.00 94 1010.5
20260510065055 7 9 0.0 0.0 0.00 0.41 0.00 94 1010.1
20260510064549 7 9 0.0 0.0 0.00 0.41 0.00 94 1010.1
20260510063812 8 9 0.0 0.0 0.00 0.41 0.00 94 1010.0
20260510063306 8 9 0.0 0.0 0.00 0.41 0.00 94 1010.0
20260510063301 8 9 0.0 0.0 0.00 0.41 0.00 94 1010.0
20260510062254 8 9 0.0 0.0 0.00 0.41 0.00 94 1010.3
20260510061747 8 9 0.0 0.0 0.00 0.41 0.00 94 1010.3
20260510061242 8 9 0.0 0.0 0.00 0.41 0.00 94 1010.3
20260510060230 8 9 0.0 0.0 0.00 0.41 0.00 94 1010.4
20260510055723 8 9 0.0 0.0 0.00 0.41 0.00 94 1010.5
20260510055219 8 9 0.0 0.0 0.00 0.41 0.00 94 1010.5
20260510054713 8 9 0.0 0.0 0.00 0.41 0.00 94 1010.6
20260510054205 8 9 0.0 0.0 0.00 0.41 0.00 94 1010.5
20260510053701 8 9 0.0 0.0 0.00 0.41 0.00 93 1010.5
20260510053154 8 9 0.0 0.0 0.00 0.41 0.00 93 1010.6
20260510052649 8 9 0.0 0.0 0.00 0.41 0.00 93 1010.6
20260510052408 8 9 0.0 0.0 0.00 0.41 0.00 94 1010.6
20260510052242 8 9 0.0 0.0 0.00 0.41 0.00 94 1010.6
20260510051400 8 9 0.0 0.0 0.00 0.41 0.00 93 1010.6
20260510050622 8 9 0.0 0.0 0.00 0.41 0.00 93 1010.8
20260510050117 8 9 0.0 0.0 0.00 0.41 0.00 93 1010.8
20260510045610 8 9 0.0 0.0 0.00 0.41 0.00 93 1010.8
20260510045104 8 9 0.0 0.0 0.00 0.41 0.00 93 1010.8
20260510044559 8 9 0.0 0.0 0.00 0.41 0.00 93 1010.9
20260510044052 8 9 0.0 0.0 0.00 0.41 0.00 93 1010.9
20260510044047 8 9 0.0 0.0 0.00 0.41 0.00 93 1011.1
20260510043040 8 9 0.0 0.0 0.00 0.41 0.00 93 1010.9
20260510042533 8 9 0.0 0.0 0.00 0.41 0.00 93 1010.9
20260510042029 8 9 0.0 0.0 0.00 0.41 0.00 93 1011.0
20260510041522 8 9 0.0 0.0 0.00 0.41 0.00 93 1011.1
20260510041017 8 9 0.0 0.0 0.00 0.41 0.00 93 1011.0
20260510040511 8 9 0.0 0.0 0.00 0.41 0.00 93 1011.0
20260510040005 8 9 0.0 0.0 0.00 0.41 0.00 93 1011.0
20260510035459 8 9 0.0 0.0 0.00 0.41 0.41 93 1011.1
20260510034952 8 9 0.0 0.0 0.00 0.41 0.41 93 1010.9
20260510034446 8 9 0.0 0.0 0.00 0.41 0.41 93 1010.9
20260510033941 8 9 0.0 0.0 0.00 0.41 0.41 93 1010.9
20260510033434 8 9 0.0 0.0 0.00 0.41 0.41 93 1010.9
20260510032930 8 9 0.0 0.0 0.00 0.41 0.41 93 1010.8
20260510032423 8 9 0.0 0.0 0.00 0.41 0.41 93 1010.6
20260510031916 9 9 0.0 0.0 0.00 0.41 0.41 93 1010.6
20260510031410 9 9 0.0 0.0 0.00 0.41 0.41 93 1010.7
20260510030905 9 9 0.0 0.0 0.00 0.41 0.41 93 1010.7
20260510030359 9 9 0.0 0.0 0.00 0.41 0.41 93 1010.8
20260510025852 9 9 0.0 0.0 0.00 0.41 0.41 93 1010.7
20260510025617 9 9 0.0 0.0 0.00 0.41 0.41 93 1010.6
20260510024842 9 9 0.0 0.0 0.00 0.41 0.41 92 1010.6
20260510024336 9 9 0.0 0.0 0.00 0.41 0.41 92 1010.6
20260510023828 9 9 0.0 0.0 0.00 0.41 0.41 92 1010.6
20260510023324 9 9 0.0 0.0 0.00 0.41 0.41 92 1010.6
20260510022817 9 9 0.0 0.0 0.00 0.41 0.41 92 1010.7
20260510022543 10 9 0.0 0.0 0.00 0.41 0.41 92 1010.6
20260510021805 10 9 0.0 0.0 0.00 0.41 0.41 92 1010.5
20260510021259 10 9 0.0 0.0 0.00 0.41 0.41 92 1010.5
20260510020752 10 9 0.0 0.0 0.00 0.41 0.41 92 1010.6
20260510020250 10 9 0.0 0.0 0.00 0.41 0.41 92 1010.5
20260510015751 10 9 0.0 0.0 0.00 0.41 0.41 92 1010.6
20260510015249 10 9 0.0 0.0 0.00 0.41 0.41 91 1010.5
20260510014750 10 9 0.0 0.0 0.00 0.41 0.41 91 1010.5
20260510014247 10 9 0.0 0.0 0.00 0.41 0.41 91 1010.6
20260510013747 10 9 0.0 0.0 0.00 0.41 0.41 91 1010.6
20260510013250 10 9 0.0 0.0 0.00 0.41 0.41 91 1010.6
20260510013245 10 9 0.0 0.0 0.00 0.41 0.41 91 1010.6
20260510012515 10 9 0.0 0.0 0.00 0.41 0.41 91 1010.6
20260510011743 10 9 0.0 0.0 0.00 0.41 0.41 91 1010.7
20260510011243 10 9 0.0 0.0 0.00 0.41 0.41 91 1010.5
20260510010744 11 9 0.0 0.0 0.00 0.41 0.41 91 1010.4
20260510010243 11 9 0.0 0.0 0.00 0.41 0.41 91 1010.3
20260510005744 11 9 0.0 0.0 0.00 0.41 0.41 91 1010.3
20260510005245 11 9 0.0 0.0 0.00 0.41 0.41 91 1010.0
20260510004740 11 9 0.0 0.0 0.00 0.41 0.41 90 1010.1
20260510004512 11 9 0.0 0.0 0.00 0.41 0.41 91 1010.1
20260510003742 11 9 0.0 0.0 0.00 0.41 0.41 91 1010.0
20260510003240 11 9 0.0 0.0 0.00 0.41 0.41 91 1009.9
20260510002740 11 9 0.0 0.0 0.00 0.41 0.41 91 1009.9
20260510002241 11 9 0.0 0.0 0.00 0.41 0.41 91 1009.9
20260510001741 11 9 0.0 0.0 0.00 0.41 0.41 91 1010.0
20260510001511 12 9 0.0 0.0 0.00 0.41 0.41 91 1010.0
20260510000741 12 9 0.0 0.0 0.00 0.41 0.41 91 1009.8
20260510000241 12 9 0.0 0.0 0.00 0.41 0.41 91 1009.8
20260509235740 12 9 0.0 0.0 0.00 0.41 0.41 91 1009.9
20260509235239 12 9 0.0 0.0 0.00 0.41 0.41 92 1010.0
20260509234741 12 9 0.0 0.0 0.00 0.41 0.41 92 1009.9
20260509234240 12 9 0.0 0.0 0.00 0.41 0.41 92 1009.9
20260509233740 12 9 0.0 0.0 0.00 0.41 0.41 92 1009.9
20260509233240 12 9 0.0 0.0 0.00 0.41 0.41 92 1010.0
20260509232740 12 9 0.0 0.0 0.00 0.41 0.41 92 1009.9
20260509232509 12 9 0.0 3.2 0.00 0.41 0.41 92 1009.9
20260509231732 12 9 0.0 3.2 0.00 0.41 0.41 92 1009.9
20260509231225 12 67 0.0 0.0 0.00 0.41 0.41 92 1009.9
20260509230722 12 69 0.0 0.0 0.00 0.41 0.41 92 1009.8
20260509230214 12 8 0.0 0.0 0.00 0.41 0.41 93 1009.8
20260509225707 12 8 0.0 0.0 0.00 0.41 0.41 92 1009.8
20260509225201 12 7 0.0 0.0 0.00 0.41 0.41 93 1009.7
20260509224656 12 12 0.0 0.0 0.00 0.41 0.41 92 1009.8
20260509224149 12 15 0.0 0.0 0.00 0.41 0.41 92 1009.8
20260509223644 12 26 0.0 0.0 0.00 0.41 0.41 92 1009.8
20260509223138 12 36 0.0 0.0 0.03 0.41 0.41 91 1009.7
20260509222903 12 36 0.0 0.0 0.03 0.41 0.41 91 1009.7
20260509222126 12 36 0.0 1.6 0.03 0.41 0.41 91 1009.7
20260509221621 12 57 0.0 1.6 0.10 0.41 0.41 91 1009.8
20260509221345 12 4 0.0 0.0 0.25 0.41 0.41 91 1009.9
20260509220608 12 4 0.0 0.0 0.30 0.41 0.41 90 1010.1
20260509215555 12 4 0.0 0.0 0.38 0.41 0.41 90 1010.0
20260509215051 12 4 0.0 0.0 0.41 0.41 0.41 89 1010.4
20260509214544 12 4 0.0 0.0 0.41 0.41 0.41 89 1010.4
20260509214037 12 4 0.0 0.0 0.41 0.41 0.41 88 1010.4
20260509213532 12 4 0.0 0.0 0.41 0.41 0.41 87 1010.6
20260509213025 13 4 0.0 0.0 0.38 0.38 0.38 86 1010.5
20260509212520 13 4 0.0 0.0 0.38 0.38 0.38 85 1010.5
20260509212014 13 4 0.0 0.0 0.36 0.36 0.36 85 1010.6
20260509211507 13 140 0.0 1.6 0.28 0.28 0.28 85 1010.5
20260509211003 13 196 0.0 1.6 0.15 0.15 0.15 83 1011.1
20260509210455 13 307 0.0 0.0 0.08 0.08 0.10 82 1010.1
20260509205949 13 307 0.0 0.0 0.03 0.03 0.03 81 1010.1
20260509205443 13 307 0.0 6.4 0.03 0.03 0.03 80 1010.3
20260509205209 13 278 0.0 6.4 0.00 0.00 0.00 80 1010.4
20260509204432 14 153 0.0 0.0 0.00 0.00 0.00 81 1010.0
20260509203926 14 108 0.0 1.6 0.00 0.00 0.00 80 1009.9
20260509203420 14 345 0.0 1.6 0.00 0.00 0.00 79 1009.8
20260509202913 14 356 0.0 3.2 0.00 0.00 0.00 79 1009.8